| time (UTC) | temp C | wind direction | speed KPH | gust KPH | rain 1hr cm | rain 24hr cm | rain mn cm | humidity % | barometer mb |
| 20260506212740 | 11 | 358 | 9.7 | 17.7 | 0.00 | 2.16 | 2.16 | 43 | 1013.0 |
| 20260506212236 | 11 | 341 | 11.3 | 22.5 | 0.00 | 2.16 | 2.16 | 44 | 1012.9 |
| 20260506211726 | 11 | 5 | 16.1 | 19.3 | 0.00 | 2.16 | 2.16 | 42 | 1012.6 |
| 20260506211222 | 11 | 342 | 11.3 | 19.3 | 0.00 | 2.16 | 2.16 | 44 | 1012.6 |
| 20260506210719 | 11 | 4 | 6.4 | 17.7 | 0.00 | 2.16 | 2.16 | 43 | 1012.8 |
| 20260506210216 | 12 | 6 | 14.5 | 22.5 | 0.00 | 2.16 | 2.16 | 42 | 1012.9 |
| 20260506205713 | 11 | 329 | 8.0 | 8.0 | 0.00 | 2.16 | 2.16 | 43 | 1012.8 |
| 20260506205208 | 11 | 297 | 3.2 | 8.0 | 0.00 | 2.16 | 2.16 | 44 | 1012.8 |
| 20260506204706 | 11 | 321 | 11.3 | 12.9 | 0.00 | 2.16 | 2.16 | 43 | 1012.7 |
| 20260506204203 | 11 | 3 | 11.3 | 16.1 | 0.00 | 2.16 | 2.16 | 41 | 1012.7 |
| 20260506203701 | 11 | 331 | 9.7 | 11.3 | 0.00 | 2.16 | 2.16 | 41 | 1012.8 |
| 20260506203158 | 11 | 16 | 12.9 | 22.5 | 0.00 | 2.16 | 2.16 | 42 | 1012.7 |
| 20260506202656 | 11 | 1 | 11.3 | 16.1 | 0.00 | 2.16 | 2.16 | 43 | 1012.8 |
| 20260506202151 | 11 | 359 | 11.3 | 19.3 | 0.00 | 2.16 | 2.16 | 39 | 1012.7 |
| 20260506201649 | 12 | 325 | 8.0 | 19.3 | 0.00 | 2.16 | 2.16 | 40 | 1012.7 |
| 20260506201145 | 12 | 339 | 9.7 | 16.1 | 0.00 | 2.16 | 2.16 | 40 | 1012.8 |
| 20260506200642 | 12 | 354 | 3.2 | 8.0 | 0.00 | 2.16 | 2.16 | 44 | 1012.8 |
| 20260506200138 | 12 | 248 | 3.2 | 12.9 | 0.00 | 2.16 | 2.16 | 39 | 1012.6 |
| 20260506195635 | 12 | 313 | 11.3 | 17.7 | 0.00 | 2.16 | 2.16 | 39 | 1012.6 |
| 20260506195131 | 12 | 38 | 14.5 | 17.7 | 0.00 | 2.16 | 2.16 | 42 | 1012.5 |
| 20260506194629 | 12 | 338 | 8.0 | 17.7 | 0.00 | 2.16 | 2.16 | 39 | 1012.8 |
| 20260506194125 | 12 | 323 | 8.0 | 11.3 | 0.00 | 2.16 | 2.16 | 41 | 1012.8 |
| 20260506193623 | 11 | 283 | 11.3 | 25.7 | 0.00 | 2.16 | 2.16 | 38 | 1012.8 |
| 20260506193120 | 11 | 349 | 12.9 | 22.5 | 0.00 | 2.16 | 2.16 | 39 | 1012.7 |
| 20260506192617 | 12 | 346 | 8.0 | 11.3 | 0.00 | 2.16 | 2.16 | 41 | 1012.9 |
| 20260506192113 | 12 | 294 | 6.4 | 12.9 | 0.00 | 2.16 | 2.16 | 39 | 1012.8 |
| 20260506191609 | 12 | 288 | 9.7 | 16.1 | 0.00 | 2.16 | 2.16 | 41 | 1012.8 |
| 20260506191105 | 12 | 2 | 8.0 | 11.3 | 0.00 | 2.16 | 2.16 | 45 | 1012.7 |
| 20260506190603 | 12 | 302 | 6.4 | 12.9 | 0.00 | 2.16 | 2.16 | 42 | 1012.7 |
| 20260506190100 | 12 | 343 | 9.7 | 17.7 | 0.00 | 2.16 | 2.16 | 40 | 1013.0 |
| 20260506185557 | 12 | 0 | 9.7 | 24.1 | 0.00 | 2.16 | 2.16 | 42 | 1012.9 |
| 20260506185053 | 12 | 359 | 8.0 | 16.1 | 0.00 | 2.16 | 2.16 | 40 | 1012.7 |
| 20260506184551 | 12 | 349 | 16.1 | 30.6 | 0.00 | 2.16 | 2.16 | 41 | 1012.6 |
| 20260506184048 | 12 | 357 | 11.3 | 17.7 | 0.00 | 2.16 | 2.16 | 49 | 1012.8 |
| 20260506183544 | 12 | 302 | 8.0 | 12.9 | 0.00 | 2.16 | 2.16 | 44 | 1012.6 |
| 20260506183040 | 12 | 252 | 11.3 | 17.7 | 0.00 | 2.16 | 2.16 | 49 | 1012.6 |
| 20260506182538 | 12 | 1 | 8.0 | 17.7 | 0.00 | 2.16 | 2.16 | 45 | 1012.4 |
| 20260506182035 | 12 | 355 | 9.7 | 17.7 | 0.00 | 2.16 | 2.16 | 45 | 1012.3 |
| 20260506181533 | 12 | 353 | 8.0 | 22.5 | 0.00 | 2.16 | 2.16 | 48 | 1012.7 |
| 20260506181029 | 12 | 318 | 8.0 | 19.3 | 0.00 | 2.16 | 2.16 | 47 | 1012.5 |
| 20260506180526 | 12 | 6 | 19.3 | 30.6 | 0.00 | 2.16 | 2.16 | 47 | 1012.5 |
| 20260506180023 | 12 | 38 | 9.7 | 19.3 | 0.00 | 2.16 | 2.16 | 50 | 1012.5 |
| 20260506175519 | 12 | 339 | 16.1 | 24.1 | 0.00 | 2.16 | 2.16 | 48 | 1012.6 |
| 20260506175016 | 12 | 0 | 16.1 | 22.5 | 0.00 | 2.16 | 2.16 | 47 | 1012.4 |
| 20260506174514 | 12 | 350 | 22.5 | 25.7 | 0.00 | 2.16 | 2.16 | 47 | 1012.6 |
| 20260506174010 | 12 | 31 | 19.3 | 22.5 | 0.00 | 2.16 | 2.16 | 46 | 1012.5 |
| 20260506173508 | 12 | 304 | 4.8 | 6.4 | 0.00 | 2.16 | 2.16 | 53 | 1012.7 |
| 20260506173005 | 12 | 286 | 12.9 | 22.5 | 0.00 | 2.16 | 2.16 | 48 | 1012.4 |
| 20260506172502 | 12 | 28 | 8.0 | 12.9 | 0.00 | 2.16 | 2.16 | 50 | 1012.5 |
| 20260506171958 | 12 | 320 | 12.9 | 29.0 | 0.00 | 2.16 | 2.16 | 51 | 1012.3 |
| 20260506171455 | 12 | 326 | 9.7 | 19.3 | 0.00 | 2.16 | 2.16 | 52 | 1012.4 |
| 20260506170953 | 12 | 345 | 9.7 | 33.8 | 0.00 | 2.16 | 2.16 | 52 | 1012.3 |
| 20260506170449 | 12 | 302 | 16.1 | 19.3 | 0.00 | 2.16 | 2.16 | 55 | 1012.4 |
| 20260506165942 | 11 | 291 | 6.4 | 22.5 | 0.00 | 2.16 | 2.16 | 62 | 1012.4 |
| 20260506165440 | 12 | 292 | 4.8 | 16.1 | 0.00 | 2.16 | 2.16 | 60 | 1012.4 |
| 20260506164936 | 12 | 307 | 6.4 | 16.1 | 0.00 | 2.16 | 2.16 | 60 | 1012.4 |
| 20260506164433 | 11 | 347 | 20.9 | 24.1 | 0.00 | 2.16 | 2.16 | 61 | 1012.3 |
| 20260506163925 | 11 | 339 | 4.8 | 22.5 | 0.00 | 2.16 | 2.16 | 63 | 1012.1 |
| 20260506163420 | 11 | 313 | 1.6 | 8.0 | 0.00 | 2.16 | 2.16 | 62 | 1012.1 |
| 20260506162915 | 11 | 346 | 8.0 | 12.9 | 0.00 | 2.16 | 2.16 | 61 | 1011.9 |
| 20260506162413 | 11 | 334 | 17.7 | 25.7 | 0.00 | 2.16 | 2.16 | 59 | 1012.0 |
| 20260506161910 | 11 | 337 | 9.7 | 12.9 | 0.00 | 2.16 | 2.16 | 64 | 1011.9 |
| 20260506161408 | 11 | 273 | 6.4 | 16.1 | 0.00 | 2.16 | 2.16 | 67 | 1012.1 |
| 20260506160905 | 11 | 37 | 11.3 | 17.7 | 0.00 | 2.16 | 2.16 | 61 | 1012.1 |
| 20260506160402 | 11 | 332 | 3.2 | 8.0 | 0.00 | 2.16 | 2.16 | 66 | 1012.1 |
| 20260506155900 | 11 | 353 | 6.4 | 22.5 | 0.00 | 2.16 | 2.16 | 67 | 1012.1 |
| 20260506155356 | 11 | 331 | 4.8 | 11.3 | 0.00 | 2.16 | 2.16 | 64 | 1012.0 |
| 20260506153514 | 11 | 347 | 17.7 | 19.3 | 0.00 | 2.16 | 2.16 | 67 | 1011.7 |
| 20260506153011 | 11 | 354 | 11.3 | 17.7 | 0.00 | 2.16 | 2.16 | 68 | 1011.8 |
| 20260506152508 | 10 | 7 | 6.4 | 8.0 | 0.00 | 2.16 | 2.16 | 74 | 1011.6 |
| 20260506152006 | 10 | 348 | 14.5 | 17.7 | 0.00 | 2.16 | 2.16 | 72 | 1011.6 |
| 20260506151503 | 10 | 321 | 4.8 | 11.3 | 0.00 | 2.16 | 2.16 | 77 | 1011.6 |
| 20260506151001 | 10 | 276 | 4.8 | 11.3 | 0.00 | 2.16 | 2.16 | 79 | 1011.4 |
| 20260506150456 | 9 | 339 | 14.5 | 17.7 | 0.00 | 2.16 | 2.16 | 79 | 1011.3 |
| 20260506145954 | 9 | 357 | 9.7 | 16.1 | 0.00 | 2.16 | 2.16 | 79 | 1011.4 |
| 20260506145450 | 9 | 5 | 14.5 | 16.1 | 0.00 | 2.16 | 2.16 | 82 | 1011.2 |
| 20260506144948 | 9 | 357 | 11.3 | 19.3 | 0.00 | 2.16 | 2.16 | 80 | 1011.0 |
| 20260506144444 | 9 | 316 | 4.8 | 8.0 | 0.00 | 2.16 | 2.16 | 84 | 1011.0 |
| 20260506143942 | 9 | 353 | 11.3 | 12.9 | 0.00 | 2.16 | 2.16 | 84 | 1011.2 |
| 20260506143439 | 8 | 49 | 4.8 | 8.0 | 0.00 | 2.16 | 2.16 | 86 | 1011.0 |
| 20260506142938 | 8 | 345 | 1.6 | 6.4 | 0.00 | 2.16 | 2.16 | 87 | 1011.3 |
| 20260506142435 | 8 | 22 | 6.4 | 12.9 | 0.00 | 2.16 | 2.16 | 86 | 1010.9 |
| 20260506141933 | 8 | 344 | 12.9 | 16.1 | 0.00 | 2.16 | 2.16 | 86 | 1010.9 |
| 20260506141430 | 8 | 338 | 6.4 | 12.9 | 0.00 | 2.16 | 2.16 | 87 | 1011.0 |
| 20260506140929 | 8 | 9 | 6.4 | 6.4 | 0.00 | 2.16 | 2.16 | 90 | 1011.0 |
| 20260506140425 | 8 | 324 | 3.2 | 4.8 | 0.00 | 2.16 | 2.16 | 90 | 1011.1 |
| 20260506135922 | 8 | 279 | 3.2 | 6.4 | 0.00 | 2.16 | 2.16 | 90 | 1011.3 |
| 20260506135420 | 8 | 5 | 4.8 | 12.9 | 0.00 | 2.16 | 2.16 | 91 | 1010.8 |
| 20260506134915 | 8 | 0 | 8.0 | 12.9 | 0.00 | 2.16 | 2.16 | 91 | 1010.7 |
| 20260506134412 | 8 | 337 | 4.8 | 6.4 | 0.00 | 2.16 | 2.16 | 92 | 1010.7 |
| 20260506133909 | 8 | 349 | 4.8 | 16.1 | 0.00 | 2.16 | 2.16 | 91 | 1010.9 |
| 20260506133406 | 8 | 306 | 1.6 | 1.6 | 0.00 | 2.16 | 2.16 | 93 | 1010.5 |
| 20260506132902 | 8 | 329 | 8.0 | 11.3 | 0.00 | 2.16 | 2.16 | 92 | 1010.3 |
| 20260506132359 | 8 | 321 | 4.8 | 12.9 | 0.00 | 2.16 | 2.16 | 93 | 1010.6 |
| 20260506131858 | 8 | 332 | 6.4 | 8.0 | 0.00 | 2.16 | 2.16 | 93 | 1010.5 |
| 20260506131353 | 8 | 344 | 3.2 | 6.4 | 0.00 | 2.16 | 2.16 | 92 | 1010.3 |
| 20260506130851 | 7 | 13 | 9.7 | 12.9 | 0.00 | 2.16 | 2.16 | 92 | 1010.5 |
| 20260506130347 | 7 | 33 | 9.7 | 16.1 | 0.00 | 2.16 | 2.16 | 93 | 1010.3 |
| 20260506125845 | 8 | 339 | 6.4 | 8.0 | 0.00 | 2.16 | 2.16 | 95 | 1010.1 |
| 20260506125343 | 7 | 349 | 1.6 | 1.6 | 0.00 | 2.16 | 2.16 | 95 | 1010.2 |
| 20260506124841 | 7 | 330 | 3.2 | 11.3 | 0.00 | 2.16 | 2.16 | 95 | 1010.0 |
| 20260506124338 | 7 | 330 | 3.2 | 11.3 | 0.00 | 2.16 | 2.16 | 95 | 1010.0 |
| 20260506123836 | 7 | 3 | 11.3 | 12.9 | 0.00 | 2.16 | 2.16 | 95 | 1009.9 |
| 20260506123334 | 7 | 264 | 3.2 | 8.0 | 0.00 | 2.16 | 2.16 | 96 | 1009.8 |
| 20260506122831 | 7 | 325 | 8.0 | 8.0 | 0.00 | 2.16 | 2.16 | 96 | 1009.9 |
| 20260506122327 | 7 | 356 | 8.0 | 11.3 | 0.00 | 2.16 | 2.16 | 96 | 1009.8 |
| 20260506121826 | 7 | 337 | 4.8 | 6.4 | 0.00 | 2.16 | 2.16 | 96 | 1009.7 |
| 20260506121322 | 7 | 356 | 4.8 | 4.8 | 0.00 | 2.16 | 2.16 | 96 | 1009.6 |
| 20260506120820 | 7 | 13 | 6.4 | 6.4 | 0.00 | 2.16 | 2.16 | 96 | 1009.7 |
| 20260506120317 | 7 | 337 | 6.4 | 8.0 | 0.00 | 2.16 | 2.16 | 96 | 1010.1 |
| 20260506115814 | 7 | 347 | 3.2 | 6.4 | 0.00 | 2.16 | 2.16 | 96 | 1010.0 |
| 20260506115313 | 7 | 4 | 3.2 | 6.4 | 0.00 | 2.16 | 2.16 | 96 | 1009.8 |
| 20260506114810 | 7 | 351 | 1.6 | 4.8 | 0.00 | 2.16 | 2.16 | 96 | 1009.7 |
| 20260506114308 | 7 | 352 | 4.8 | 4.8 | 0.00 | 2.16 | 2.16 | 96 | 1009.5 |
| 20260506113806 | 7 | 355 | 0.0 | 0.0 | 0.00 | 2.16 | 2.16 | 96 | 1009.3 |
| 20260506113303 | 7 | 356 | 4.8 | 4.8 | 0.00 | 2.16 | 2.16 | 96 | 1009.3 |
| 20260506112800 | 7 | 7 | 0.0 | 4.8 | 0.00 | 2.16 | 2.16 | 96 | 1009.4 |
| 20260506112257 | 7 | 23 | 0.0 | 1.6 | 0.00 | 2.16 | 2.16 | 96 | 1009.4 |
| 20260506111754 | 7 | 356 | 0.0 | 6.4 | 0.00 | 2.16 | 2.16 | 96 | 1009.6 |
| 20260506111252 | 7 | 353 | 3.2 | 4.8 | 0.00 | 2.16 | 2.16 | 96 | 1009.9 |
| 20260506110750 | 7 | 12 | 0.0 | 4.8 | 0.00 | 2.16 | 2.16 | 96 | 1009.2 |
| 20260506110247 | 7 | 348 | 1.6 | 4.8 | 0.00 | 2.16 | 2.16 | 96 | 1009.7 |
| 20260506105743 | 7 | 342 | 1.6 | 4.8 | 0.00 | 2.16 | 2.16 | 96 | 1009.1 |
| 20260506105240 | 7 | 354 | 1.6 | 4.8 | 0.00 | 2.16 | 2.16 | 96 | 1008.9 |
| 20260506104738 | 7 | 351 | 4.8 | 4.8 | 0.00 | 2.16 | 2.16 | 96 | 1008.5 |
| 20260506104235 | 7 | 0 | 4.8 | 6.4 | 0.00 | 2.16 | 2.16 | 96 | 1008.1 |
| 20260506103732 | 7 | 18 | 1.6 | 1.6 | 0.00 | 2.16 | 2.16 | 96 | 1008.3 |
| 20260506103229 | 7 | 3 | 1.6 | 4.8 | 0.00 | 2.16 | 2.16 | 96 | 1008.3 |
| 20260506102727 | 7 | 2 | 4.8 | 4.8 | 0.13 | 2.16 | 2.16 | 96 | 1008.3 |
| 20260506102225 | 7 | 40 | 1.6 | 4.8 | 0.13 | 2.16 | 2.16 | 96 | 1007.9 |
| 20260506101722 | 7 | 32 | 4.8 | 6.4 | 0.00 | 2.13 | 2.13 | 96 | 1008.1 |
| 20260506101218 | 7 | 31 | 1.6 | 4.8 | 0.18 | 2.13 | 2.13 | 95 | 1008.3 |
| 20260506100716 | 7 | 33 | 4.8 | 6.4 | 0.30 | 2.13 | 2.13 | 95 | 1008.5 |
| 20260506100214 | 7 | 31 | 6.4 | 6.4 | 0.30 | 2.11 | 2.11 | 95 | 1008.7 |
| 20260506095712 | 7 | 312 | 0.0 | 4.8 | 0.30 | 2.08 | 2.08 | 95 | 1009.1 |
| 20260506095209 | 7 | 350 | 11.3 | 12.9 | 0.13 | 2.06 | 2.06 | 95 | 1009.0 |
| 20260506094706 | 7 | 5 | 1.6 | 8.0 | 0.30 | 2.03 | 2.03 | 95 | 1008.8 |
| 20260506094204 | 7 | 358 | 8.0 | 11.3 | 0.30 | 2.01 | 2.01 | 95 | 1009.1 |
| 20260506093703 | 7 | 350 | 4.8 | 8.0 | 0.48 | 1.98 | 1.98 | 95 | 1008.8 |
| 20260506093159 | 7 | 20 | 4.8 | 8.0 | 0.30 | 1.96 | 1.96 | 95 | 1008.8 |
| 20260506092657 | 7 | 353 | 1.6 | 6.4 | 0.30 | 1.93 | 1.93 | 95 | 1009.1 |
| 20260506092154 | 7 | 357 | 9.7 | 11.3 | 0.18 | 1.91 | 1.91 | 95 | 1008.9 |
| 20260506091652 | 7 | 336 | 4.8 | 6.4 | 0.13 | 1.88 | 1.88 | 95 | 1008.8 |
| 20260506091149 | 7 | 330 | 8.0 | 19.3 | 0.13 | 1.88 | 1.88 | 95 | 1008.6 |
| 20260506090647 | 7 | 351 | 1.6 | 6.4 | 0.18 | 1.85 | 1.85 | 95 | 1008.6 |
| 20260506090143 | 7 | 12 | 8.0 | 16.1 | 0.30 | 1.85 | 1.85 | 95 | 1008.3 |
| 20260506085640 | 7 | 11 | 9.7 | 12.9 | 0.13 | 1.83 | 1.83 | 95 | 1008.5 |
| 20260506085136 | 7 | 8 | 4.8 | 8.0 | 0.18 | 1.80 | 1.80 | 95 | 1008.6 |
| 20260506084633 | 7 | 353 | 8.0 | 12.9 | 0.18 | 1.80 | 1.80 | 95 | 1008.6 |
| 20260506084130 | 7 | 23 | 8.0 | 12.9 | 0.13 | 1.78 | 1.78 | 95 | 1008.6 |
| 20260506083627 | 7 | 42 | 11.3 | 17.7 | 0.61 | 1.78 | 1.78 | 95 | 1008.7 |
| 20260506083125 | 7 | 344 | 6.4 | 19.3 | 0.61 | 1.75 | 1.75 | 95 | 1008.9 |
| 20260506082621 | 7 | 25 | 6.4 | 12.9 | 0.48 | 1.68 | 1.68 | 95 | 1008.5 |
| 20260506082116 | 7 | 328 | 4.8 | 12.9 | 0.48 | 1.63 | 1.63 | 95 | 1008.3 |
| 20260506081615 | 7 | 5 | 9.7 | 8.0 | 0.61 | 1.60 | 1.60 | 96 | 1008.6 |
| 20260506081112 | 8 | 28 | 6.4 | 12.9 | 0.48 | 1.52 | 1.52 | 96 | 1008.3 |
| 20260506080610 | 8 | 333 | 12.9 | 12.9 | 0.61 | 1.50 | 1.50 | 96 | 1008.2 |
| 20260506080106 | 8 | 334 | 4.8 | 11.3 | 0.61 | 1.45 | 1.45 | 96 | 1008.4 |
| 20260506073050 | 8 | 348 | 8.0 | 17.7 | 0.43 | 1.17 | 1.17 | 96 | 1008.0 |
| 20260506072547 | 8 | 346 | 4.8 | 8.0 | 0.30 | 1.12 | 1.12 | 96 | 1008.0 |
| 20260506072045 | 8 | 12 | 4.8 | 11.3 | 0.30 | 1.09 | 1.09 | 96 | 1007.8 |
| 20260506071542 | 8 | 0 | 6.4 | 12.9 | 0.30 | 1.07 | 1.07 | 96 | 1007.9 |
| 20260506071040 | 8 | 4 | 6.4 | 8.0 | 0.48 | 1.04 | 1.04 | 96 | 1007.8 |
| 20260506070537 | 8 | 349 | 6.4 | 8.0 | 0.61 | 1.02 | 1.02 | 96 | 1007.9 |
| 20260506062514 | 8 | 342 | 9.7 | 11.3 | 0.66 | 0.71 | 0.71 | 95 | 1008.1 |
| 20260506062011 | 8 | 351 | 4.8 | 4.8 | 0.30 | 0.64 | 0.64 | 95 | 1008.4 |
| 20260506061506 | 8 | 351 | 8.0 | 8.0 | 0.30 | 0.61 | 0.61 | 95 | 1008.2 |
| 20260506061005 | 8 | 22 | 4.8 | 8.0 | 0.18 | 0.58 | 0.58 | 95 | 1008.2 |
| 20260506060503 | 8 | 346 | 4.8 | 8.0 | 0.30 | 0.56 | 0.56 | 95 | 1008.5 |
| 20260506050931 | 9 | 10 | 8.0 | 8.0 | 0.18 | 0.30 | 0.30 | 95 | 1009.1 |
| 20260506050429 | 9 | 23 | 3.2 | 8.0 | 0.00 | 0.28 | 0.28 | 95 | 1009.2 |
| 20260506044919 | 9 | 19 | 4.8 | 8.0 | 0.30 | 0.25 | 0.25 | 95 | 1009.2 |
| 20260506044418 | 9 | 21 | 4.8 | 6.4 | 0.13 | 0.23 | 0.23 | 95 | 1009.1 |
| 20260506043914 | 9 | 347 | 4.8 | 8.0 | 0.18 | 0.20 | 0.20 | 95 | 1009.2 |
| 20260506043412 | 9 | 328 | 8.0 | 11.3 | 0.13 | 0.18 | 0.18 | 95 | 1009.3 |
| 20260506042909 | 9 | 3 | 6.4 | 8.0 | 0.30 | 0.18 | 0.18 | 95 | 1009.3 |
| 20260506042409 | 9 | 16 | 1.6 | 4.8 | 0.30 | 0.15 | 0.15 | 95 | 1009.3 |
| 20260506041906 | 9 | 340 | 4.8 | 6.4 | 0.43 | 0.13 | 0.13 | 95 | 1009.3 |
| 20260506041403 | 9 | 11 | 6.4 | 8.0 | 0.48 | 0.10 | 0.10 | 95 | 1009.2 |
| 20260506040900 | 9 | 357 | 0.0 | 4.8 | 0.36 | 0.05 | 0.05 | 95 | 1009.3 |
| 20260506040358 | 9 | 7 | 8.0 | 11.3 | 0.30 | 0.00 | 0.00 | 95 | 1009.4 |
| 20260506035854 | 9 | 355 | 6.4 | 6.4 | 0.30 | 1.98 | 1.98 | 95 | 1009.2 |
| 20260506035351 | 9 | 340 | 8.0 | 11.3 | 0.13 | 1.93 | 1.93 | 95 | 1009.6 |
| 20260506034849 | 9 | 353 | 4.8 | 4.8 | 0.13 | 1.93 | 1.93 | 95 | 1009.5 |
| 20260506034346 | 9 | 30 | 8.0 | 11.3 | 0.18 | 1.91 | 1.91 | 94 | 1009.6 |
| 20260506033842 | 9 | 357 | 3.2 | 6.4 | 0.13 | 1.88 | 1.88 | 94 | 1009.7 |
| 20260506033339 | 9 | 16 | 6.4 | 12.9 | 0.30 | 1.88 | 1.88 | 94 | 1009.5 |
| 20260506032837 | 9 | 9 | 6.4 | 8.0 | 0.30 | 1.85 | 1.85 | 95 | 1009.7 |
| 20260506032333 | 10 | 41 | 1.6 | 4.8 | 0.30 | 1.83 | 1.83 | 95 | 1009.7 |
| 20260506031830 | 10 | 352 | 4.8 | 6.4 | 0.18 | 1.80 | 1.80 | 95 | 1009.8 |
| 20260506031327 | 10 | 38 | 6.4 | 11.3 | 0.30 | 1.78 | 1.78 | 95 | 1010.1 |
| 20260506030825 | 10 | 335 | 8.0 | 8.0 | 0.48 | 1.75 | 1.75 | 95 | 1010.2 |
| 20260506030323 | 10 | 331 | 8.0 | 6.4 | 0.48 | 1.73 | 1.73 | 95 | 1010.5 |
| 20260506025819 | 10 | 333 | 9.7 | 12.9 | 0.30 | 1.68 | 1.68 | 95 | 1010.0 |
| 20260506025316 | 10 | 337 | 1.6 | 4.8 | 0.30 | 1.65 | 1.65 | 95 | 1010.0 |
| 20260506024813 | 10 | 18 | 3.2 | 4.8 | 0.61 | 1.63 | 1.63 | 95 | 1010.0 |
| 20260506024310 | 10 | 354 | 0.0 | 1.6 | 0.89 | 1.60 | 1.60 | 95 | 1009.7 |
| 20260506023806 | 10 | 16 | 6.4 | 8.0 | 0.79 | 1.52 | 1.52 | 95 | 1009.6 |
| 20260506023303 | 10 | 332 | 0.0 | 1.6 | 0.79 | 1.45 | 1.45 | 95 | 1009.6 |
| 20260506022759 | 10 | 14 | 9.7 | 12.9 | 0.79 | 1.40 | 1.40 | 95 | 1009.3 |
| 20260506022257 | 10 | 5 | 0.0 | 4.8 | 0.43 | 1.32 | 1.32 | 95 | 1009.4 |
| 20260506021755 | 10 | 28 | 4.8 | 6.4 | 0.30 | 1.27 | 1.27 | 95 | 1009.3 |
| 20260506021252 | 10 | 0 | 4.8 | 6.4 | 0.30 | 1.24 | 1.24 | 95 | 1009.3 |
| 20260506020749 | 10 | 13 | 4.8 | 11.3 | 0.30 | 1.22 | 1.22 | 95 | 1009.3 |
| 20260506020247 | 10 | 30 | 8.0 | 12.9 | 0.48 | 1.19 | 1.19 | 95 | 1009.3 |
| 20260506015744 | 10 | 16 | 4.8 | 6.4 | 0.61 | 1.17 | 1.17 | 95 | 1009.3 |
| 20260506015241 | 10 | 24 | 4.8 | 11.3 | 0.30 | 1.12 | 1.12 | 95 | 1009.3 |
| 20260506014738 | 10 | 8 | 0.0 | 1.6 | 0.18 | 1.07 | 1.07 | 94 | 1009.3 |
| 20260506014235 | 10 | 7 | 6.4 | 6.4 | 0.18 | 1.07 | 1.07 | 94 | 1009.3 |
| 20260506013732 | 10 | 2 | 9.7 | 12.9 | 0.00 | 1.04 | 1.04 | 94 | 1009.2 |
| 20260506013229 | 10 | 28 | 11.3 | 12.9 | 0.00 | 1.04 | 1.04 | 94 | 1009.2 |
| 20260506012725 | 10 | 23 | 6.4 | 12.9 | 0.00 | 1.04 | 1.04 | 95 | 1009.1 |
| 20260506012222 | 11 | 14 | 4.8 | 8.0 | 0.00 | 1.04 | 1.04 | 95 | 1009.2 |
| 20260506011720 | 11 | 23 | 3.2 | 6.4 | 0.00 | 1.04 | 1.04 | 95 | 1009.1 |
| 20260506011215 | 11 | 8 | 6.4 | 8.0 | 0.13 | 1.04 | 1.04 | 95 | 1009.1 |
| 20260506010714 | 11 | 5 | 6.4 | 6.4 | 0.30 | 1.04 | 1.04 | 95 | 1009.1 |
| 20260506010211 | 11 | 349 | 6.4 | 6.4 | 0.30 | 1.02 | 1.02 | 94 | 1009.1 |
| 20260506005708 | 11 | 2 | 3.2 | 4.8 | 0.13 | 0.99 | 0.99 | 94 | 1009.0 |
| 20260506005205 | 11 | 9 | 3.2 | 6.4 | 0.00 | 0.97 | 0.97 | 94 | 1008.7 |
| 20260506004701 | 11 | 20 | 4.8 | 6.4 | 0.00 | 0.97 | 0.97 | 94 | 1008.9 |
| 20260506004159 | 11 | 355 | 4.8 | 6.4 | 0.00 | 0.97 | 0.97 | 94 | 1009.0 |
| 20260506003654 | 11 | 19 | 1.6 | 6.4 | 0.18 | 0.97 | 0.97 | 94 | 1008.8 |
| 20260506003151 | 11 | 36 | 3.2 | 1.6 | 0.18 | 0.97 | 0.97 | 94 | 1008.8 |
| 20260506002647 | 11 | 36 | 3.2 | 4.8 | 0.13 | 0.94 | 0.94 | 94 | 1008.9 |
| 20260506002143 | 11 | 42 | 1.6 | 4.8 | 0.30 | 0.94 | 0.94 | 94 | 1008.9 |
| 20260506001639 | 11 | 48 | 1.6 | 4.8 | 0.30 | 0.91 | 0.91 | 94 | 1008.9 |
| 20260506001137 | 11 | 30 | 3.2 | 1.6 | 0.30 | 0.89 | 0.89 | 94 | 1008.9 |
| 20260506000634 | 11 | 30 | 4.8 | 4.8 | 0.48 | 0.86 | 0.86 | 94 | 1008.9 |
| 20260506000131 | 11 | 21 | 3.2 | 4.8 | 0.61 | 0.84 | 0.84 | 93 | 1009.0 |
| 20260505235629 | 11 | 23 | 1.6 | 1.6 | 0.61 | 0.79 | 0.79 | 93 | 1009.1 |
| 20260505235125 | 11 | 23 | 0.0 | 4.8 | 0.79 | 0.74 | 0.74 | 92 | 1009.1 |
| 20260505234617 | 11 | 335 | 4.8 | 11.3 | 1.98 | 0.66 | 0.66 | 92 | 1009.4 |
| 20260505234114 | 12 | 298 | 4.8 | 12.9 | 3.07 | 0.58 | 0.58 | 90 | 1009.4 |
| 20260505233612 | 13 | 293 | 8.0 | 16.1 | 1.98 | 0.33 | 0.33 | 88 | 1009.6 |
| 20260505233109 | 15 | 314 | 12.9 | 16.1 | 0.30 | 0.05 | 0.05 | 88 | 1009.0 |
| 20260505232606 | 15 | 336 | 1.6 | 1.6 | 0.00 | 0.00 | 0.00 | 86 | 1008.5 |
| 20260505232104 | 15 | 280 | 4.8 | 4.8 | 0.00 | 0.00 | 0.00 | 85 | 1008.2 |
| 20260505231600 | 15 | 1 | 3.2 | 6.4 | 0.00 | 0.00 | 0.00 | 84 | 1008.2 |
| 20260505231059 | 15 | 351 | 3.2 | 4.8 | 0.00 | 0.00 | 0.00 | 84 | 1008.3 |
| 20260505230556 | 15 | 341 | 1.6 | 4.8 | 0.00 | 0.00 | 0.00 | 83 | 1008.2 |
| 20260505230052 | 15 | 327 | 4.8 | 11.3 | 0.00 | 0.00 | 0.00 | 83 | 1008.3 |
| 20260505225549 | 15 | 328 | 1.6 | 4.8 | 0.00 | 0.00 | 0.00 | 84 | 1008.3 |
| 20260505225045 | 15 | 7 | 3.2 | 4.8 | 0.00 | 0.00 | 0.00 | 83 | 1008.3 |
| 20260505224543 | 15 | 336 | 1.6 | 8.0 | 0.00 | 0.00 | 0.00 | 83 | 1008.2 |
| 20260505224040 | 15 | 341 | 1.6 | 6.4 | 0.00 | 0.00 | 0.00 | 82 | 1008.4 |
| 20260505223537 | 15 | 0 | 1.6 | 6.4 | 0.00 | 0.00 | 0.00 | 82 | 1008.5 |
| 20260505223033 | 15 | 333 | 6.4 | 8.0 | 0.00 | 0.00 | 0.00 | 82 | 1008.4 |
| 20260505222529 | 15 | 338 | 4.8 | 11.3 | 0.00 | 0.00 | 0.00 | 82 | 1008.5 |
| 20260505222026 | 15 | 4 | 4.8 | 6.4 | 0.00 | 0.00 | 0.00 | 81 | 1008.8 |
| 20260505221523 | 16 | 307 | 3.2 | 4.8 | 0.00 | 0.00 | 0.00 | 81 | 1008.6 |
| 20260505221019 | 16 | 347 | 1.6 | 4.8 | 0.00 | 0.00 | 0.00 | 81 | 1008.7 |
| 20260505220517 | 16 | 320 | 1.6 | 4.8 | 0.00 | 0.00 | 0.00 | 81 | 1008.9 |
| 20260505220015 | 16 | 354 | 4.8 | 6.4 | 0.00 | 0.00 | 0.00 | 80 | 1008.8 |
| 20260505215512 | 16 | 288 | 6.4 | 11.3 | 0.00 | 0.00 | 0.00 | 79 | 1008.5 |
| 20260505215010 | 16 | 298 | 4.8 | 6.4 | 0.00 | 0.00 | 0.00 | 77 | 1008.6 |
| 20260505214508 | 17 | 354 | 11.3 | 19.3 | 0.00 | 0.00 | 0.00 | 74 | 1008.7 |
| 20260505214004 | 17 | 354 | 4.8 | 6.4 | 0.00 | 0.00 | 0.00 | 73 | 1008.5 |
| 20260505213502 | 17 | 277 | 6.4 | 16.1 | 0.00 | 0.00 | 0.00 | 72 | 1008.6 |
| 20260505212958 | 17 | 264 | 3.2 | 6.4 | 0.00 | 0.00 | 0.00 | 73 | 1008.4 |